| time (UTC) | temp F | wind direction | speed knots | gust knots | rain 1hr in | rain 24hr in | rain mn in | humidity % | barometer mb |
| 20260507163101 | 64 | 53 | 2.6 | 11.3 | 0.00 | 0.00 | 0.00 | 86 | 1017.2 |
| 20260507161604 | 63 | 325 | 3.5 | 9.6 | 0.00 | 0.00 | 0.00 | 86 | 1017.0 |
| 20260507160058 | 64 | 318 | 4.3 | 9.6 | 0.00 | 0.00 | 0.00 | 86 | 1017.0 |
| 20260507154600 | 64 | 49 | 5.2 | 13.9 | 0.00 | 0.00 | 0.00 | 86 | 1016.6 |
| 20260507153058 | 64 | 13 | 4.3 | 13.9 | 0.00 | 0.00 | 0.00 | 86 | 1016.5 |
| 20260507151557 | 63 | 30 | 5.2 | 13.9 | 0.00 | 0.00 | 0.00 | 88 | 1016.4 |
| 20260507150055 | 63 | 342 | 7.0 | 14.8 | 0.00 | 0.00 | 0.00 | 88 | 1016.1 |
| 20260507144555 | 62 | 346 | 4.3 | 13.9 | 0.00 | 0.00 | 0.00 | 89 | 1016.7 |
| 20260507143105 | 62 | 36 | 4.3 | 11.3 | 0.00 | 0.00 | 0.00 | 90 | 1016.8 |
| 20260507141554 | 62 | 51 | 4.3 | 11.3 | 0.00 | 0.00 | 0.00 | 91 | 1016.9 |
| 20260507140051 | 62 | 322 | 4.3 | 11.3 | 0.00 | 0.00 | 0.00 | 92 | 1016.8 |
| 20260507134550 | 63 | 71 | 7.0 | 15.6 | 0.00 | 0.00 | 0.00 | 92 | 1016.1 |
| 20260507133051 | 62 | 35 | 9.6 | 17.4 | 0.00 | 0.00 | 0.00 | 93 | 1015.4 |
| 20260507131545 | 63 | 16 | 6.1 | 13.0 | 0.00 | 0.00 | 0.00 | 93 | 1015.4 |
| 20260507130043 | 63 | 32 | 5.2 | 15.6 | 0.00 | 0.00 | 0.00 | 93 | 1015.6 |
| 20260507124546 | 63 | 273 | 4.3 | 11.3 | 0.00 | 0.00 | 0.00 | 92 | 1016.3 |
| 20260507123041 | 63 | 355 | 3.5 | 9.6 | 0.00 | 0.00 | 0.00 | 92 | 1016.1 |
| 20260507121536 | 63 | 17 | 3.5 | 13.0 | 0.00 | 0.00 | 0.00 | 91 | 1016.0 |
| 20260507120035 | 63 | 295 | 2.6 | 8.7 | 0.00 | 0.00 | 0.00 | 91 | 1015.6 |
| 20260507114554 | 63 | 28 | 3.5 | 7.0 | 0.00 | 0.00 | 0.00 | 91 | 1015.6 |
| 20260507113057 | 64 | 322 | 1.7 | 12.2 | 0.00 | 0.00 | 0.00 | 91 | 1015.0 |
| 20260507111537 | 64 | 304 | 4.3 | 13.0 | 0.00 | 0.00 | 0.00 | 90 | 1014.1 |
| 20260507110026 | 64 | 5 | 3.5 | 8.7 | 0.00 | 0.00 | 0.00 | 90 | 1014.9 |
| 20260507104537 | 64 | 27 | 1.7 | 8.7 | 0.00 | 0.00 | 0.00 | 90 | 1014.4 |
| 20260507103026 | 64 | 355 | 1.7 | 7.0 | 0.00 | 0.00 | 0.00 | 90 | 1014.6 |
| 20260507101525 | 64 | 350 | 1.7 | 8.7 | 0.00 | 0.00 | 0.00 | 90 | 1014.4 |
| 20260507100020 | 64 | 15 | 2.6 | 9.6 | 0.00 | 0.00 | 0.00 | 90 | 1014.1 |
| 20260507094519 | 64 | 13 | 2.6 | 8.7 | 0.00 | 0.00 | 0.00 | 89 | 1013.9 |
| 20260507093020 | 64 | 317 | 3.5 | 10.4 | 0.00 | 0.00 | 0.00 | 89 | 1013.8 |
| 20260507091519 | 64 | 40 | 1.7 | 8.7 | 0.00 | 0.00 | 0.00 | 89 | 1013.9 |
| 20260507090017 | 64 | 64 | 1.7 | 8.7 | 0.00 | 0.00 | 0.00 | 89 | 1013.8 |
| 20260507084517 | 64 | 29 | 1.7 | 9.6 | 0.00 | 0.00 | 0.00 | 88 | 1013.8 |
| 20260507083015 | 64 | 38 | 4.3 | 9.6 | 0.00 | 0.00 | 0.00 | 88 | 1013.7 |
| 20260507081520 | 64 | 78 | 4.3 | 12.2 | 0.00 | 0.00 | 0.00 | 88 | 1013.9 |
| 20260507080012 | 64 | 41 | 3.5 | 9.6 | 0.00 | 0.00 | 0.00 | 87 | 1014.0 |
| 20260507074512 | 64 | 19 | 3.5 | 10.4 | 0.00 | 0.00 | 0.00 | 87 | 1013.9 |
| 20260507073010 | 64 | 56 | 4.3 | 10.4 | 0.00 | 0.00 | 0.00 | 87 | 1013.9 |
| 20260507071508 | 64 | 60 | 1.7 | 11.3 | 0.00 | 0.00 | 0.00 | 86 | 1014.1 |
| 20260507070012 | 64 | 346 | 5.2 | 10.4 | 0.00 | 0.00 | 0.00 | 86 | 1014.2 |
| 20260507064506 | 65 | 22 | 4.3 | 14.8 | 0.00 | 0.00 | 0.00 | 86 | 1014.2 |
| 20260507063007 | 65 | 5 | 3.5 | 9.6 | 0.00 | 0.00 | 0.00 | 87 | 1014.3 |
| 20260507061503 | 65 | 331 | 4.3 | 12.2 | 0.00 | 0.00 | 0.00 | 87 | 1014.3 |
| 20260507060105 | 65 | 345 | 4.3 | 9.6 | 0.00 | 0.00 | 0.00 | 87 | 1014.3 |
| 20260507054559 | 65 | 337 | 3.5 | 9.6 | 0.00 | 0.00 | 0.00 | 86 | 1014.2 |
| 20260507053057 | 66 | 350 | 3.5 | 11.3 | 0.00 | 0.00 | 0.00 | 86 | 1014.1 |
| 20260507051555 | 66 | 56 | 4.3 | 13.0 | 0.00 | 0.00 | 0.00 | 86 | 1014.0 |
| 20260507050152 | 66 | 5 | 3.5 | 9.6 | 0.00 | 0.00 | 0.00 | 87 | 1013.5 |
| 20260507044605 | 66 | 36 | 3.5 | 9.6 | 0.00 | 0.00 | 0.00 | 86 | 1013.6 |
| 20260507043102 | 66 | 80 | 2.6 | 13.0 | 0.00 | 0.00 | 0.00 | 86 | 1013.7 |
| 20260507041554 | 66 | 24 | 4.3 | 13.0 | 0.00 | 0.00 | 0.00 | 86 | 1013.7 |
| 20260507040046 | 66 | 317 | 3.5 | 9.6 | 0.00 | 0.00 | 0.00 | 85 | 1013.8 |
| 20260507034544 | 67 | 21 | 4.3 | 10.4 | 0.00 | 0.00 | 0.00 | 85 | 1013.4 |
| 20260507033043 | 67 | 13 | 6.1 | 13.0 | 0.00 | 0.00 | 0.00 | 84 | 1013.5 |
| 20260507031545 | 67 | 343 | 4.3 | 10.4 | 0.00 | 0.00 | 0.00 | 84 | 1013.5 |
| 20260507030038 | 67 | 326 | 6.1 | 12.2 | 0.00 | 0.00 | 0.00 | 83 | 1013.4 |
| 20260507024534 | 68 | 296 | 3.5 | 12.2 | 0.00 | 0.00 | 0.00 | 83 | 1012.9 |
| 20260507023033 | 68 | 11 | 3.5 | 10.4 | 0.00 | 0.00 | 0.00 | 82 | 1012.6 |
| 20260507021528 | 69 | 339 | 4.3 | 9.6 | 0.00 | 0.00 | 0.00 | 82 | 1012.3 |
| 20260507020042 | 69 | 319 | 4.3 | 11.3 | 0.00 | 0.00 | 0.00 | 82 | 1012.0 |
| 20260507014521 | 69 | 41 | 4.3 | 10.4 | 0.00 | 0.00 | 0.00 | 82 | 1011.4 |
| 20260507013022 | 70 | 5 | 4.3 | 11.3 | 0.00 | 0.00 | 0.00 | 82 | 1011.4 |
| 20260507011523 | 71 | 329 | 2.6 | 10.4 | 0.00 | 0.00 | 0.00 | 82 | 1011.2 |
| 20260507010014 | 71 | 20 | 1.7 | 7.0 | 0.00 | 0.00 | 0.00 | 84 | 1011.1 |
| 20260507004512 | 72 | 308 | 4.3 | 8.7 | 0.00 | 0.00 | 0.00 | 83 | 1010.7 |
| 20260507003010 | 72 | 314 | 4.3 | 12.2 | 0.00 | 0.00 | 0.00 | 83 | 1010.4 |
| 20260507001525 | 73 | 17 | 5.2 | 13.0 | 0.00 | 0.00 | 0.00 | 83 | 1010.1 |
| 20260507000003 | 74 | 72 | 4.3 | 11.3 | 0.00 | 0.00 | 0.00 | 82 | 1009.8 |
| 20260506234503 | 77 | 348 | 5.2 | 14.8 | 0.00 | 0.00 | 0.00 | 79 | 1009.7 |
| 20260506233102 | 85 | 338 | 0.0 | 0.0 | 0.00 | 0.00 | 0.00 | 79 | 1009.1 |
| 20260506231607 | 85 | 292 | 0.0 | 0.0 | 0.00 | 0.00 | 0.00 | 79 | 1008.8 |
| 20260506230113 | 85 | 248 | 0.0 | 0.0 | 0.00 | 0.00 | 0.00 | 80 | 1008.6 |
| 20260506224557 | 85 | 248 | 0.0 | 0.0 | 0.00 | 0.00 | 0.00 | 81 | 1008.6 |
| 20260506223103 | 84 | 248 | 0.0 | 2.6 | 0.00 | 0.00 | 0.00 | 83 | 1008.5 |
| 20260506221610 | 84 | 219 | 1.7 | 3.5 | 0.00 | 0.00 | 0.00 | 81 | 1008.6 |
| 20260506220056 | 85 | 246 | 2.6 | 5.2 | 0.00 | 0.00 | 0.00 | 80 | 1008.5 |
| 20260506214556 | 84 | 238 | 3.5 | 7.8 | 0.00 | 0.00 | 0.00 | 81 | 1008.4 |
| 20260506213055 | 84 | 161 | 2.6 | 7.0 | 0.00 | 0.00 | 0.00 | 82 | 1008.6 |
| 20260506211554 | 85 | 179 | 3.5 | 6.1 | 0.00 | 0.00 | 0.00 | 82 | 1008.7 |
| 20260506210056 | 84 | 185 | 1.7 | 6.1 | 0.00 | 0.00 | 0.00 | 85 | 1008.8 |
| 20260506204550 | 83 | 225 | 2.6 | 8.7 | 0.00 | 0.00 | 0.00 | 84 | 1008.8 |
| 20260506203045 | 82 | 182 | 3.5 | 9.6 | 0.00 | 0.00 | 0.00 | 86 | 1009.0 |
| 20260506201544 | 82 | 208 | 4.3 | 7.0 | 0.00 | 0.00 | 0.00 | 87 | 1009.3 |
| 20260506200042 | 82 | 194 | 6.1 | 9.6 | 0.00 | 0.00 | 0.00 | 85 | 1009.4 |
| 20260506194541 | 82 | 180 | 6.1 | 9.6 | 0.00 | 0.00 | 0.00 | 86 | 1009.4 |
| 20260506193043 | 81 | 180 | 3.5 | 7.0 | 0.00 | 0.00 | 0.00 | 88 | 1009.6 |
| 20260506191537 | 81 | 140 | 4.3 | 7.8 | 0.00 | 0.00 | 0.00 | 88 | 1009.6 |
| 20260506190035 | 81 | 131 | 5.2 | 7.0 | 0.00 | 0.00 | 0.00 | 89 | 1010.0 |
| 20260506184537 | 81 | 169 | 2.6 | 3.5 | 0.00 | 0.00 | 0.00 | 88 | 1010.0 |
| 20260506183030 | 80 | 150 | 0.9 | 7.0 | 0.00 | 0.00 | 0.00 | 90 | 1010.2 |
| 20260506181536 | 79 | 80 | 2.6 | 6.1 | 0.00 | 0.00 | 0.00 | 93 | 1010.5 |
| 20260506180026 | 79 | 67 | 0.9 | 3.5 | 0.00 | 0.00 | 0.00 | 92 | 1010.7 |
| 20260506174523 | 78 | 83 | 4.3 | 6.1 | 0.00 | 0.00 | 0.00 | 94 | 1010.9 |
| 20260506173023 | 78 | 92 | 2.6 | 7.0 | 0.00 | 0.00 | 0.00 | 94 | 1011.2 |
| 20260506171527 | 78 | 93 | 2.6 | 6.1 | 0.00 | 0.00 | 0.00 | 94 | 1011.3 |
| 20260506170027 | 78 | 126 | 4.3 | 7.8 | 0.00 | 0.00 | 0.00 | 93 | 1011.4 |
| 20260506164541 | 78 | 121 | 2.6 | 6.1 | 0.00 | 0.00 | 0.00 | 92 | 1011.3 |